LOT151 EPWA-LTAI

Flight info

Callsign LOT151
Flight time N/A
Altitude 37000
Route EVINA7G EVINA DCT KOTEK DCT KENIN DCT UPAMA/N0449F390 DCT ADORU UL606 CRD UL854 KOZLU KOZLU1U
Aircraft B38M/M-SDE2E3FGHIRWXY/LB1

Departure

Time 2026-05-06 14:27
Airport Warsaw Chopin Airport (EPWA)

Arrival

Time N/A
Airport Antalya International Airport (LTAI)
Time Latitude Longitude Altitude Speed Heading
2026-05-06 14:16 52.16852 20.96987 363 ft 0 kts 62°
2026-05-06 14:23 52.16852 20.96989 364 ft 1 kts 62°
2026-05-06 14:23 52.16869 20.97043 366 ft 10 kts 71°
2026-05-06 14:24 52.16824 20.97168 363 ft 19 kts 146°
2026-05-06 14:24 52.16672 20.97230 368 ft 26 kts 179°
2026-05-06 14:24 52.16575 20.97372 361 ft 22 kts 116°
2026-05-06 14:24 52.16498 20.97644 363 ft 31 kts 112°
2026-05-06 14:25 52.16404 20.97798 362 ft 16 kts 201°
2026-05-06 14:25 52.16311 20.97704 363 ft 16 kts 246°
2026-05-06 14:25 52.16314 20.97642 358 ft 0 kts 292°
2026-05-06 14:26 52.16314 20.97641 358 ft 0 kts 291°
2026-05-06 14:26 52.16336 20.97551 364 ft 33 kts 293°
2026-05-06 14:26 52.16534 20.96836 365 ft 103 kts 294°
2026-05-06 14:27 52.16922 20.95464 371 ft 161 kts 294°
2026-05-06 14:27 52.17395 20.93607 662 ft 187 kts 289°
2026-05-06 14:27 52.17932 20.91605 1402 ft 195 kts 289°
2026-05-06 14:27 52.18339 20.89578 2454 ft 185 kts 277°
2026-05-06 14:28 52.18320 20.87356 2779 ft 211 kts 254°
2026-05-06 14:28 52.17897 20.84980 3405 ft 222 kts 254°
2026-05-06 14:28 52.17494 20.82510 4108 ft 232 kts 253°
2026-05-06 14:28 52.17076 20.79886 4710 ft 246 kts 254°
2026-05-06 14:29 52.16644 20.77135 5456 ft 253 kts 254°
2026-05-06 14:29 52.16206 20.74325 6307 ft 257 kts 255°
2026-05-06 14:29 52.15595 20.71613 7107 ft 258 kts 236°
2026-05-06 14:29 52.14341 20.69520 7945 ft 260 kts 220°
2026-05-06 14:30 52.12928 20.67665 8756 ft 262 kts 221°